Regional Weather Roundup
Issued by NWS

Home | Current Version | Previous Version | Graphics & Text | Print | Product List | Glossary On
Versions: 1 2 3 4 5 6 7 8 9 10 11 12 13 14 15 16 17 18 19 20 21 22 23 24 25 26 27 28 29 30 31 32 33 34 35 36 37 38 39 40 41 42 43 44 45 46 47 48 49 50
000
ASUS45 KCYS 302210
RWRWY

WYOMING REGIONAL WEATHER ROUNDUP
NATIONAL WEATHER SERVICE CHEYENNE WY
400 PM MDT TUE SEP 30 2014

NOTE:  "FAIR" INDICATES FEW OR NO CLOUDS BELOW 12,000 FEET
WITH NO SIGNIFICANT WEATHER AND/OR OBSTRUCTIONS TO VISIBILITY.

WYZ001-302300-
YELLOWSTONE NATIONAL PARK

CITY           SKY/WX    TMP DP  RH WIND       PRES   REMARKS
LK YELLOWSTONE   N/A     43  35  73 VRB5G17   29.90F
W YELLOWSTONE  NOT AVBL

$$
WYZ002>013-054>058-071-098>099-302300-
NORTHERN WYOMING

CITY           SKY/WX    TMP DP  RH WIND       PRES   REMARKS
JACKSON        PTSUNNY   46  45  93 S12       29.88F
CODY           CLOUDY    54  45  71 CALM      29.75R
GREYBULL       PTSUNNY   62  42  47 W7        29.70F
WORLAND        PTSUNNY   63  41  44 VRB6      29.72S
SHERIDAN       CLOUDY    59  42  53 NW22G33   29.67R
BUFFALO        CLOUDY    56  41  57 NW12G22   29.71S
GILLETTE       CLOUDY    59  42  53 NW15      29.65S
HULETT         CLOUDY    54  48  82 W10       29.64
NEWCASTLE      FAIR      59  43  55 NW17G24   29.67

$$
WYZ014>020-022>026-101>103-302300-
CENTRAL WYOMING

CITY           SKY/WX    TMP DP  RH WIND       PRES   REMARKS
BIG PINEY      LGT RAIN  47  39  74 W7        29.93S
PINEDALE       LGT RAIN  46  37  71 NW9       29.93S
DUBOIS         FAIR      48  34  57 NW22G28   29.84F
LANDER         PTSUNNY   61  36  39 SE5       29.75F
RIVERTON       PTSUNNY   62  35  36 W10       29.76F
CASPER         CLOUDY    62  33  33 W14G26    29.73F
DOUGLAS        CLOUDY    63  37  38 W17       29.72R

$$
WYZ021-027>030-104>119-302300-
SOUTHERN WYOMING

CITY           SKY/WX    TMP DP  RH WIND       PRES   REMARKS
EVANSTON       CLOUDY    48  39  71 SW14      29.99S
KEMMERER       MOCLDY    50  41  71 W16G24    29.97S
FORT BRIDGER   MOCLDY    52  42  69 W18       29.99F
ROCK SPRINGS   PTSUNNY   54  42  64 W21       29.92F
DIXON          CLOUDY    50  42  73 SW13      29.97S
RAWLINS        PTSUNNY   52  39  61 W26G32    29.87F
SARATOGA       CLOUDY    48  36  61 W17G28    29.93S
LARAMIE        PTSUNNY   49  35  58 W21       29.88S
CHEYENNE       PTSUNNY   59  35  40 W24G31    29.82F
TORRINGTON     PTSUNNY   65  42  43 SW17G25   29.70S
PINE BLUFFS    MOCLDY    63  34  34 W18       29.80S

$$



USA.gov is the U.S. government's official web portal to all federal, state and local government web resources and services.